Location: Barcelona
(41.3829°N, 2.1774°E)
Time: 14:01:05
(UTC+00:00)

ISS - Pass Details

Date: 12 July 2024
Orbit: 410 x 424 km, 51.6° (Epoch: 14 July)

Event Time Altitude Azimuth Distance (km) Brightness Sun altitude
Rises 01:01:51 0° 310° (NW) 2,346 0.3 -24.9°
Reaches altitude 10° 01:04:10 10° 324° (NW) 1,484 -0.6 -24.8°
Maximum altitude 01:07:00 25° 22° (NNE) 869 -1.5 -24.6°
Drops below altitude 10° 01:09:51 10° 81° (E) 1,485 -0.7 -24.5°
Sets 01:12:11 0° 95° (E) 2,349 0.2 -24.3°
